COSMOS 1712 (GLONASS)

Satellite information

Favourite Embed

Satellite Type and Status

PAYLOADIN ORBIT

Key statistics

Satellite COSMOS 1712 (GLONASS) at a glance.

Uptime

14501

Days in orbit

Revolutions

≈ 2.1

Per day

Orbit

MEO

Medium Earth Orbit

Inclination

66.2

Latest

Satellite identification and parameters

Extended collection of information and parameters for COSMOS 1712 (GLONASS).

Object identification

Identified? True

Debris? False

Object name: COSMOS 1712 (GLONASS)

International designator: 1985-118C

Object number (NORAD): 16398

Object ID (CCSDS): 16398

Country: COMMONWEALTH OF INDEPENDENT STATES (CIS)

Current information (Y/N): Y

RCS size: MEDIUM

Orbital parameters

Period: 676.311 minutes

Inclination: 66.1883 deg

SMA: 25522.566 km

Apoapsis: 19170.414 km

Periapsis: 19118.447 km

RAAN: 334.5815 deg

Eccentricy: 0.00101805

Argument of periapsis: 11.5405 deg

Mean anomaly: 314.8987 deg

Mean motion: 2.12919909 rev/day

Mean motion (dot): -0.00000072 rev/day2

B* drag term: 0.0 1/REarth

Two-line elements (TLE)

Creation date: Sept. 1, 2025, 7:24 p.m.

Reference frame: TEME

Reference center: EARTH

Epoch: Sept. 1, 2025, 12:04 p.m. UTC

TLE line 0: 0 COSMOS 1712 (GLONASS)

TLE line 1: 1 16398U 85118C 25244.50337078 -.00000072 00000-0 00000-0 0 9990

TLE line 2: 2 16398 66.1883 334.5815 0010180 11.5405 314.8987 2.12919909307895

Live tracking on map

Real-time ground track for satellite COSMOS 1712 (GLONASS).

In-orbit conjunctions

A list of the most updated potential collisions computed for object COSMOS 1712 (GLONASS).

Target Orbit TCA Probability of collision Miss distance Type
COSMOS 1492 (GLONASS) MEO 2025-05-24 04:43:38 TBA 1968.0 (m) PAYLOAD
COSMOS 2380 (GLONASS) MEO 2025-04-12 03:42:42 TBA 2671.0 (m) PAYLOAD
COSMOS 1972 (GLONASS) MEO 2024-12-05 14:21:43 TBA 4764.0 (m) PAYLOAD
COSMOS 2316 (GLONASS) MEO 2024-10-24 01:18:16 TBA 4556.0 (m) PAYLOAD

Associated space launch

GLONASS navigation satellites

COSMOS 1712 (GLONASS) was lifted into orbit during the mission ‘Proton | Uragan 12 & 13’, on board a Proton space rocket.

The launch took place on Dec. 24, 1985, 9:43 p.m. from 200/39 (200L).

For more information about the launch, click the button.

Launch to space Proton | Uragan 12 & 13
Proton | Uragan 12 & 13

Agency: N/A

Status: Launch Successful

Launch date: Dec. 24, 1985, 9:43 p.m. UTC

Rocket: Proton

Launch pad: 200/39 (200L)

Location: Baikonur Cosmodrome, Republic of Kazakhstan

...

Latest news about this satellite

There are no fresh news available about this satellite. Check back as we update our databases every day.


Newsletter sign-up

Weekly statistics, charts and insights to help you stay on top of the space industry.